Weather History for Lincoln, NE

Change the Weather History Date:

Monday, April 29, 2013

  Actual Average Record
Temperature  
Mean Temperature 69 °F 56 °F  
Max Temperature 84 °F 69 °F 93 °F (1987)
Min Temperature 53 °F 44 °F 27 °F (1958)
Degree Days  
Heating Degree Days 0 9  
Month to date heating degree days 563 407  
Since 1 July heating degree days 6120 5883  
Cooling Degree Days 4 1  
Month to date cooling degree days 4 12  
Year to date cooling degree days 4 13  
Growing Degree Days 18 (Base 50)    
Moisture  
Dew Point 51 °F    
Average Humidity 59    
Maximum Humidity 86    
Minimum Humidity 31    
Precipitation  
Precipitation 0.00 in 0.11 in 1.85 in (1903)
Month to date precipitation 3.99 2.59  
Year to date precipitation 7.38 5.93  
Snow  
Snow 0.00 in 0.00 in - ()
Month to date snowfall 0.6 1.4  
Since 1 July snowfall 24.8 25.9  
Snow Depth 0.00 in    
Sea Level Pressure  
Sea Level Pressure 29.65 in    
Wind  
Wind Speed 7 mph (East)    
Max Wind Speed 18 mph    
Max Gust Speed 24 mph    
Visibility 10 miles    
Events      
T = Trace of Precipitation, MM = Missing Value Source: NWS Daily Summary

Daily Weather History Graph

Daily Weather History Graph

Search for Another Location

Airport:

Trip Planner

Search our weather history database for the weather conditions in past years. The results will help you decide how hot, cold, wet, or windy it might be!

Date:

Astronomy

Apr. 29, 2013 Rise Set
Actual Time 6:27 AM CDT 8:21 PM CDT
Civil Twilight 5:58 AM CDT 8:51 PM CDT
Nautical Twilight 5:22 AM CDT 9:27 PM CDT
Astronomical Twilight 4:43 AM CDT 10:06 PM CDT
Moon No Moon Rise 9:49 AM CDT
Length of Visible Light 14h 53m
Length of Day
13h 54m
Waning Gibbous, 80% of the Moon is Illuminated
Apr 29
Waning Gibbous
May 2
Last Quarter
May 9
New
May 17
First Quarter
May 24
Full

Hourly Weather History & Observations

Time (CDT) Temp. Heat Index Dew Point Humidity Pressure Visibility Wind Dir Wind Speed Gust Speed Precip Events Conditions
12:54 AM 55.9 °F - 51.1 °F 84% 29.75 in 10.0 mi Calm Calm - N/A   Clear
1:54 AM 60.1 °F - 51.1 °F 72% 29.74 in 10.0 mi NNW 5.8 mph - N/A   Clear
2:54 AM 55.0 °F - 50.0 °F 83% 29.71 in 10.0 mi NNE 4.6 mph - N/A   Clear
3:54 AM 55.9 °F - 46.9 °F 72% 29.70 in 10.0 mi Calm Calm - N/A   Clear
4:54 AM 55.0 °F - 44.1 °F 67% 29.73 in 10.0 mi NNE 5.8 mph - N/A   Clear
5:54 AM 54.0 °F - 44.1 °F 69% 29.71 in 10.0 mi NE 5.8 mph - N/A   Clear
6:54 AM 54.0 °F - 45.0 °F 72% 29.73 in 10.0 mi North 9.2 mph - N/A   Clear
7:54 AM 55.9 °F - 46.9 °F 72% 29.76 in 10.0 mi North 13.8 mph - N/A   Clear
8:54 AM 57.0 °F - 48.0 °F 72% 29.80 in 10.0 mi North 6.9 mph - N/A   Clear
9:54 AM 62.1 °F - 50.0 °F 65% 29.75 in 10.0 mi NNE 6.9 mph - N/A   Clear
10:54 AM 66.0 °F - 52.0 °F 60% 29.72 in 10.0 mi NE 6.9 mph - N/A   Clear
11:54 AM 69.1 °F - 52.0 °F 54% 29.70 in 10.0 mi Variable 3.5 mph - N/A   Clear
12:54 PM 72.0 °F - 53.1 °F 51% 29.70 in 10.0 mi Calm Calm - N/A   Clear
1:54 PM 75.0 °F - 52.0 °F 44% 29.65 in 10.0 mi ESE 3.5 mph - N/A   Clear
2:54 PM 78.1 °F - 52.0 °F 40% 29.63 in 10.0 mi SW 3.5 mph - N/A   Clear
3:54 PM 81.0 °F - 52.0 °F 36% 29.60 in 10.0 mi SE 3.5 mph - N/A   Clear
4:54 PM 82.9 °F - 52.0 °F 34% 29.56 in 10.0 mi Calm Calm - N/A   Clear
5:54 PM 82.9 °F - 48.0 °F 29% 29.54 in 10.0 mi SSE 11.5 mph - N/A   Clear
6:54 PM 81.0 °F 80.4 °F 53.1 °F 38% 29.52 in 10.0 mi SSE 9.2 mph - N/A   Clear
7:54 PM 75.0 °F - 53.1 °F 46% 29.52 in 10.0 mi South 5.8 mph - N/A   Clear
8:54 PM 71.1 °F - 53.1 °F 53% 29.53 in 10.0 mi South 5.8 mph - N/A   Clear
9:54 PM 68.0 °F - 54.0 °F 61% 29.54 in 10.0 mi South 6.9 mph - N/A   Clear
10:54 PM 66.0 °F - 57.0 °F 73% 29.52 in 10.0 mi South 11.5 mph - N/A   Scattered Clouds
11:54 PM 75.9 °F - 55.0 °F 48% 29.49 in 10.0 mi South 17.3 mph - N/A   Clear